CZ-2C R/B (28222 NORAD) Tracking and Keplerian Element Data

This shows tracking and keplerian element data for the satellite.

Feedback or suggestion? Click here.




ElementValue
Catalog28222
NameCZ-2C R/B
Epoch Orbit8330
Epoch Day12.94711788
Epoch Year2024
RAAN19.5362
Inclination97.8078
Eccentricity0.0035602
Argument of Perigee232.5979
Mean Anonmoly127.2013
Mean Motion15.21802262
Decay Rate0.00012192
L11 28222U 04012C 24012.94711788 .00012192 00000+0 53082-3 0 9992
L22 28222 97.8078 19.5362 0035602 232.5979 127.2013 15.21802262 83305



Live tracking and technical data element details for CZ-2C R/B (NORAD 28222). CZ-2C R/B can be tracked NOW for your location showing map with azimuth and elevation plus other details from your city location.







IsCatalogInMostPopularTable: catalog: 28222, numindb: 514
Update: records affected: 1



GetName: 28222 CZ-2C R/B

Hit Count: updated at: Mon, 15 Apr 2024 00:08:32 GMT